Sarasota, FL

5:55 AM EST on December 10, 2019 (GMT -0500)
Sarasota-bradenton

Weather History for KSRQ - October, 2019

Change the Weather History Date:

Sunday, October 27, 2019

  Actual Average Record
Temperature  
Mean Temperature 83 °F 74 °F  
Max Temperature 89 °F 83 °F 90 °F (1960)
Min Temperature 77 °F 64 °F 43 °F (1968)
Degree Days  
Heating Degree Days 0 0  
Month to date heating degree days 0 0  
Since 1 July heating degree days 0 0  
Cooling Degree Days 18 9  
Month to date cooling degree days 481 322  
Year to date cooling degree days 3938 3111  
Growing Degree Days 33 (Base 50)    
Moisture  
Dew Point 76 °F    
Average Humidity 83    
Maximum Humidity 94    
Minimum Humidity 68    
Precipitation  
Precipitation T in 0.07 in 1.81 in (1922)
Month to date precipitation 3.36 2.80  
Year to date precipitation 46.74 48.23  
Sea Level Pressure  
Sea Level Pressure 29.95 in    
Wind  
Wind Speed 5 mph ()    
Max Wind Speed 12 mph    
Max Gust Speed 15 mph    
Visibility 9.9 miles    
Events      
T = Trace of Precipitation, MM = Missing Value Source: Averaged Metar Reports

Daily Weather History Graph

Daily Weather History Graph

Search for Another Location

Airport or City:

Astronomy

Oct. 27, 2019 Rise Set
Actual Time 7:37 AM EDT 6:50 PM EDT
Civil Twilight 7:13 AM EDT 7:14 PM EDT
Nautical Twilight 6:45 AM EDT 7:41 PM EDT
Astronomical Twilight 6:18 AM EDT 8:09 PM EDT
Moon 6:54 AM EDT (10/27) 6:52 PM EDT (10/27)
Length of Visible Light 12h 01m
Length of Day
11h 13m
Waning Crescent, 0% of the Moon is Illuminated
Oct 27
Waning Crescent
Oct 27
New
Nov 4
First Quarter
Nov 12
Full
Nov 19
Last Quarter

Hourly Weather History & Observations

Time (EDT) Temp. Heat Index Dew Point Humidity Pressure Visibility Wind Dir Wind Speed Gust Speed Precip Events Conditions
12:53 AM 78.1 °F - 75.0 °F 90% 29.94 in 9.0 mi East 3.5 mph - N/A   Partly Cloudy
1:53 AM 78.1 °F - 75.0 °F 90% 29.93 in 9.0 mi ESE 4.6 mph - N/A   Scattered Clouds
2:53 AM 78.1 °F - 75.0 °F 90% 29.91 in 10.0 mi SE 3.5 mph - 0.00 in   Scattered Clouds
3:53 AM 78.1 °F - 75.0 °F 90% 29.91 in 10.0 mi ESE 6.9 mph - N/A   Scattered Clouds
4:13 AM 78.1 °F - 75.9 °F 93% 29.91 in 10.0 mi SSE 4.6 mph - N/A   Mostly Cloudy
4:23 AM 78.1 °F - 75.9 °F 93% 29.91 in 10.0 mi SSE 5.8 mph - N/A   Scattered Clouds
4:53 AM 77.0 °F - 75.0 °F 94% 29.91 in 10.0 mi SE 4.6 mph - N/A   Clear
5:53 AM 77.0 °F - 75.0 °F 94% 29.91 in 10.0 mi ESE 4.6 mph - N/A   Partly Cloudy
6:53 AM 77.0 °F - 75.0 °F 94% 29.92 in 10.0 mi SE 5.8 mph - N/A   Clear
7:53 AM 77.0 °F - 75.0 °F 94% 29.93 in 10.0 mi SE 6.9 mph - N/A   Partly Cloudy
8:53 AM 80.1 °F 85.8 °F 77.0 °F 90% 29.95 in 10.0 mi SE 6.9 mph - N/A   Clear
9:53 AM 82.9 °F 91.8 °F 77.0 °F 82% 29.98 in 10.0 mi South 5.8 mph - N/A   Partly Cloudy
10:53 AM 86.0 °F 96.9 °F 77.0 °F 74% 29.98 in 10.0 mi SSW 8.1 mph - N/A   Partly Cloudy
11:53 AM 88.0 °F 100.2 °F 77.0 °F 70% 29.99 in 10.0 mi South 10.4 mph - N/A   Clear
12:53 PM 88.0 °F 100.2 °F 77.0 °F 70% 29.99 in 10.0 mi SSW 9.2 mph - N/A   Scattered Clouds
1:53 PM 88.0 °F 100.2 °F 77.0 °F 70% 29.96 in 10.0 mi SSW 9.2 mph - N/A   Clear
2:53 PM 87.1 °F 98.8 °F 77.0 °F 72% 29.95 in 10.0 mi SW 8.1 mph - N/A   Clear
3:53 PM 87.1 °F 97.3 °F 75.9 °F 69% 29.94 in 10.0 mi SSW 10.4 mph - N/A   Clear
4:53 PM 86.0 °F 96.9 °F 77.0 °F 74% 29.94 in 10.0 mi SW 8.1 mph - N/A   Scattered Clouds
5:53 PM 84.9 °F 94.1 °F 75.9 °F 74% 29.94 in 10.0 mi SSW 8.1 mph - N/A   Scattered Clouds
6:53 PM 84.0 °F 92.6 °F 75.9 °F 76% 29.94 in 10.0 mi South 6.9 mph - N/A   Clear
7:53 PM 84.0 °F 91.9 °F 75.0 °F 74% 29.96 in 10.0 mi South 3.5 mph - N/A   Scattered Clouds
8:53 PM 82.0 °F 89.4 °F 75.9 °F 82% 29.96 in 10.0 mi ESE 3.5 mph - N/A   Clear
9:53 PM 81.0 °F 87.3 °F 75.9 °F 85% 29.98 in 10.0 mi SE 3.5 mph - N/A   Clear
10:53 PM 80.1 °F 85.4 °F 75.9 °F 87% 29.99 in 10.0 mi East 3.5 mph - N/A   Partly Cloudy
11:53 PM 79.0 °F - 75.9 °F 90% 29.99 in 10.0 mi ESE 3.5 mph - N/A   Clear